Stations météo

réclame
Mon MeteoGroup
Hemavan A, Suède (2101): Température de l'air & dewpoint: 10.08.2018 03:00:00 - 16.08.2018 03:00:00 (CEST)Hemavan A, Suède (2101): Vitesse du vent: 10.08.2018 03:00:00 - 16.08.2018 03:00:00 (CEST)Hemavan A, Suède (2101): Direction du vent: 10.08.2018 03:00:00 - 16.08.2018 03:00:00 (CEST)Hemavan A, Suède (2101): reduced air pressure: 10.08.2018 03:00:00 - 16.08.2018 03:00:00 (CEST)Hemavan A, Suède (2101): visibility: 10.08.2018 03:00:00 - 16.08.2018 03:00:00 (CEST)
Date & Time tt [°C] td [°C] ff [km/h] ff [knt] dd ppp [hPa] vv [km]
16.08.2018 03:00:00 10,9 10,1 7 4 ESE 1008,1 45
16.08.2018 02:00:00 10,9 10,1 7 4 ESE 1008,6 40
16.08.2018 01:00:00 10,8 10,0 11 6 E 1008,5 45
16.08.2018 00:00:00 11,3 10,5 7 4 SE 1008,7 50
15.08.2018 23:00:00 11,4 10,5 4 2 ESE 1008,5 35
15.08.2018 22:00:00 11,3 10,4 7 4 SE 1008,7 30
15.08.2018 21:00:00 11,3 10,0 14 8 SE 1009,0 18
15.08.2018 20:00:00 11,9 9,6 18 10 SSE 1008,7 18
15.08.2018 19:00:00 13,8 8,4 22 12 SE 1008,1 50
15.08.2018 18:00:00 14,3 7,8 25 14 SE 1008,0 50
15.08.2018 17:00:00 14,3 7,8 22 12 SSE 1008,3 45
15.08.2018 16:00:00 14,5 8,2 22 12 SE 1008,2 50
15.08.2018 15:00:00 15,2 8,4 18 10 SE 1007,8 50
15.08.2018 14:00:00 14,9 7,4 14 8 SSE 1007,9 45
15.08.2018 13:00:00 14,9 7,4 14 8 SSE 1008,1 50
15.08.2018 12:00:00 14,0 8,0 14 8 SSE 1008,2 30
15.08.2018 11:00:00 12,3 7,0 18 10 SSE 1008,7 45
15.08.2018 10:00:00 11,4 6,5 14 8 SSE 1008,7 50
15.08.2018 09:00:00 10,4 6,0 11 6 SSE 1008,9 50
15.08.2018 08:00:00 9,5 6,0 4 2 E 1009,4 45
15.08.2018 07:00:00 7,6 5,4 7 4 ESE 1009,8 50
15.08.2018 06:00:00 7,5 5,1 7 4 ESE 1009,9 45
15.08.2018 05:00:00 7,3 5,1 7 4 ESE 1010,1 50
15.08.2018 04:00:00 7,2 5,0 7 4 ESE 1010,1 50
15.08.2018 03:00:00 6,6 4,9 7 4 E 1010,5 50
15.08.2018 02:00:00 6,6 4,9 7 4 E 1010,4 50
15.08.2018 01:00:00 7,0 4,8 4 2 NE 1010,5 50
15.08.2018 00:00:00 7,0 5,3 7 4 E 1010,5 50
14.08.2018 23:00:00 6,2 5,3 4 2 E 1010,7 50
14.08.2018 22:00:00 7,2 5,8 4 2 SE 1010,5 50
14.08.2018 21:00:00 8,7 6,8 7 4 SE 1010,0 50
14.08.2018 20:00:00 10,5 6,3 4 2 ESE 1009,9 50
14.08.2018 19:00:00 10,4 6,2 4 2 SE 1009,9 45
14.08.2018 18:00:00 11,2 4,4 11 6 S 1009,6 50
14.08.2018 17:00:00 12,5 3,2 7 4 S 1009,5 40
14.08.2018 16:00:00 12,1 3,6 7 4 SSW 1009,8 50
14.08.2018 15:00:00 11,1 3,9 7 4 SSE 1010,2 45
14.08.2018 14:00:00 10,6 3,1 4 2 ESE 1010,4 50
14.08.2018 13:00:00 10,1 4,0 4 2 SSW 1010,3 50
14.08.2018 12:00:00 9,9 3,6 4 2 SE 1010,4 50
14.08.2018 11:00:00 9,5 3,7 4 2 WNW 1010,4 50
14.08.2018 10:00:00 9,0 3,8 7 4 WNW 1010,4 50
14.08.2018 09:00:00 8,6 4,2 4 2 W 1010,4 50
14.08.2018 08:00:00 8,3 5,1 4 2 WNW 1010,3 45
14.08.2018 07:00:00 7,6 5,2 4 2 WNW 1010,4 50
14.08.2018 06:00:00 7,3 5,6 0 0 N 1010,5 50
14.08.2018 05:00:00 6,4 5,4 0 0 N 1010,5 50
14.08.2018 04:00:00 6,4 5,0 4 2 N 1010,4 50
14.08.2018 03:00:00 6,8 4,6 4 2 N 1010,3 50
14.08.2018 02:00:00 7,1 4,4 7 4 W 1010,1 50
14.08.2018 01:00:00 6,8 4,1 4 2 NW 1009,9 50
14.08.2018 00:00:00 7,0 3,6 4 2 NNE 1009,7 50
13.08.2018 23:00:00 7,4 4,0 4 2 NNW 1009,4 50
13.08.2018 22:00:00 8,0 4,9 11 6 NW 1009,2 50
13.08.2018 21:00:00 8,8 4,2 11 6 NW 1008,7 50
13.08.2018 20:00:00 9,1 3,9 14 8 NW 1008,3 50
13.08.2018 19:00:00 9,5 4,5 14 8 NW 1008,1 50
13.08.2018 18:00:00 10,1 5,3 18 10 WNW 1007,9 45
13.08.2018 17:00:00 10,0 4,4 14 8 WNW 1008,1 45
13.08.2018 16:00:00 10,2 4,6 18 10 WNW 1007,9 50
13.08.2018 15:00:00 10,2 3,9 18 10 NNW 1007,7 50
13.08.2018 14:00:00 10,5 4,4 18 10 NNW 1007,2 50
13.08.2018 13:00:00 10,7 4,8 18 10 NNW 1006,9 50
13.08.2018 12:00:00 11,1 4,5 25 14 NNW 1006,6 50
13.08.2018 11:00:00 10,8 4,7 22 12 N 1006,6 45
13.08.2018 10:00:00 9,0 4,2 22 12 NNW 1006,7 7
13.08.2018 09:00:00 8,9 4,3 14 8 NNW 1006,4 50
13.08.2018 08:00:00 8,6 4,2 14 8 N 1006,0 45
13.08.2018 07:00:00 7,9 3,6 22 12 N 1005,9 50
13.08.2018 06:00:00 8,1 4,1 14 8 NW 1005,5 50
13.08.2018 05:00:00 8,3 4,5 22 12 NNW 1004,9 50
13.08.2018 04:00:00 8,5 5,2 22 12 NNW 1004,7 50
13.08.2018 03:00:00 8,4 5,5 22 12 NNW 1004,8 50
13.08.2018 02:00:00 8,6 5,3 18 10 NNW 1004,6 50
13.08.2018 01:00:00 8,5 5,8 18 10 NNW 1004,6 8
13.08.2018 00:00:00 8,6 5,9 11 6 NW 1004,5 50
12.08.2018 23:00:00 8,7 6,1 7 4 NW 1004,3 30
12.08.2018 22:00:00 8,6 5,9 7 4 NW 1004,3 35
12.08.2018 21:00:00 8,6 6,2 14 8 WNW 1004,3 21
12.08.2018 20:00:00 9,3 6,6 14 8 NW 1004,1 50
12.08.2018 19:00:00 9,6 6,7 14 8 NW 1003,9 40
12.08.2018 18:00:00 10,1 6,8 14 8 WNW 1003,6 50
12.08.2018 17:00:00 9,9 8,3 18 10 WNW 1003,9 3,9
12.08.2018 16:00:00 10,6 7,7 18 10 WNW 1004,1 50
12.08.2018 15:00:00 9,5 6,8 14 8 WNW 1004,7 40
12.08.2018 14:00:00 9,3 6,9 14 8 WNW 1005,0 50
12.08.2018 13:00:00 8,8 6,9 7 4 WNW 1005,3 13
12.08.2018 12:00:00 8,5 6,5 14 8 WNW 1005,5 30
12.08.2018 11:00:00 8,4 6,5 14 8 WNW 1005,4 16
12.08.2018 10:00:00 8,0 6,3 14 8 WNW 1005,6 9
12.08.2018 09:00:00 8,4 6,0 18 10 WNW 1005,3 23
12.08.2018 08:00:00 8,3 6,1 11 6 NW 1005,6 50
12.08.2018 07:00:00 8,0 5,6 11 6 NW 1005,6 35
12.08.2018 06:00:00 8,2 5,1 14 8 WNW 1005,7 50
12.08.2018 05:00:00 8,2 5,3 14 8 WNW 1005,9 50
12.08.2018 04:00:00 8,0 5,6 11 6 NW 1006,4 21
12.08.2018 03:00:00 7,8 5,9 7 4 NW 1007,0 16
12.08.2018 02:00:00 7,9 5,5 11 6 WNW 1007,3 35
12.08.2018 01:00:00 8,2 5,3 11 6 NW 1007,7 35
12.08.2018 00:00:00 8,7 5,6 11 6 NW 1007,5 27
11.08.2018 23:00:00 8,3 6,4 11 6 WNW 1007,5 28
11.08.2018 22:00:00 8,7 5,8 14 8 WNW 1007,6 50
11.08.2018 21:00:00 9,3 5,7 14 8 WNW 1007,4 25
11.08.2018 20:00:00 9,1 5,7 18 10 WNW 1007,1 50
11.08.2018 19:00:00 9,2 5,7 22 12 WNW 1006,6 50
11.08.2018 18:00:00 9,2 5,6 29 16 WNW 1006,3 50
11.08.2018 17:00:00 9,2 5,6 29 16 WNW 1006,0 45
11.08.2018 16:00:00 9,7 6,6 18 10 WNW 1004,8 50
11.08.2018 15:00:00 10,7 7,6 22 12 WNW 1003,3 11
11.08.2018 14:00:00 11,6 8,8 22 12 WNW 1001,0 13
11.08.2018 13:00:00 11,4 9,3 18 10 WNW 998,6 11
11.08.2018 12:00:00 12,1 9,8 22 12 WSW 996,8 15
11.08.2018 11:00:00 12,9 9,7 4 2 SSE 995,2 50
11.08.2018 10:00:00 12,1 8,8 4 2 SE 994,4 50
11.08.2018 09:00:00 11,6 8,8 7 4 SSE 993,9 50
11.08.2018 08:00:00 11,1 8,8 14 8 SE 993,9 50
11.08.2018 07:00:00 11,3 9,2 22 12 SSE 994,0 50
11.08.2018 06:00:00 11,7 10,3 14 8 SSE 994,1 30
11.08.2018 05:00:00 12,2 10,1 11 6 SE 994,5 50
11.08.2018 04:00:00 12,7 11,3 18 10 SSE 994,9 50
11.08.2018 03:00:00 11,9 11,1 4 2 E 995,4 50
11.08.2018 02:00:00 13,8 11,8 14 8 SSE 995,8 45
11.08.2018 01:00:00 13,5 12,7 18 10 SSE 996,5 11
11.08.2018 00:00:00 14,5 12,5 7 4 S 996,5 22
10.08.2018 23:00:00 14,3 12,5 14 8 S 997,9 50
10.08.2018 22:00:00 13,6 11,6 18 10 S 998,8 50
10.08.2018 21:00:00 13,2 11,6 22 12 S 999,3 7
10.08.2018 20:00:00 14,9 10,9 29 16 S 999,7 30
10.08.2018 19:00:00 15,2 10,8 18 10 SE 1000,6 50
10.08.2018 18:00:00 13,6 9,4 4 2 SSW 1002,5 8
10.08.2018 17:00:00 12,7 9,5 11 6 SSE 1004,4 8
10.08.2018 16:00:00 12,5 8,8 22 12 E 1006,3 9
10.08.2018 15:00:00 12,6 8,7 11 6 SE 1007,3 50
10.08.2018 14:00:00 12,1 9,5 0 0 N 1009,0 20
10.08.2018 13:00:00 11,6 8,5 4 2 WSW 1010,3 18
10.08.2018 12:00:00 11,3 8,9 4 2 NNE 1011,9 17
10.08.2018 11:00:00 10,4 9,5 4 2 WNW 1013,3 7
10.08.2018 10:00:00 10,0 9,2 4 2 NNW 1014,2 10
10.08.2018 09:00:00 10,0 9,2 4 2 W 1014,5 10
10.08.2018 08:00:00 9,1 8,3 0 0 N 1014,8 30
10.08.2018 07:00:00 8,1 8,0 0 0 N 1015,3 35
10.08.2018 06:00:00 6,6 6,5 4 2 NNE 1016,1 1,3
10.08.2018 05:00:00 5,8 5,7 4 2 NNW 1016,8 2,5
10.08.2018 04:00:00 4,8 4,7 0 0 N 1016,9 0,3
10.08.2018 03:00:00 5,4 5,3 4 2 NNW 1017,2 13

tt = Température de l'air
td = dewpoint
ff = Vitesse du vent
dd = Direction du vent
ppp = reduced air pressure
vv = visibility

stations d'obs. à proximité